Location: Torch Lake Township
(45.0753°N, 85.3586°W)
Time: 20:47:52
(UTC-04:00)

Amateur Radio Satellites - All Passes

Search period start: 19 April 2015 20:17
Search period end: 20 April 2015 20:17
Location: Torch Lake Township, 45.0753°N, 85.3586°W

Satellite Date Start Highest point End Downlink Frequencies (MHz)
Time Altitude Azimuth
PRISM 19 Apr 20:18:28 20:22:31 54° 100° (E) 20:26:31 437.425
COMPASS 1 19 Apr 20:21:33 20:22:13 10° 60° (ENE) 20:23:05 437.405
AUBIESAT-1 19 Apr 20:21:40 20:26:09 80° 289° (WNW) 20:30:15 437.475
RS-15 19 Apr 20:24:11 20:33:35 30° 346° (NNW) 20:43:12 29.354- 29.394
ISS 19 Apr 20:25:37 20:28:46 42° 20° (NNE) 20:31:53 145.825
CANX-2 19 Apr 20:30:26 20:33:34 20° 65° (ENE) 20:36:48 2200.000
DOVE 4 19 Apr 20:31:11 20:33:47 17° 63° (ENE) 20:36:34 437.250
SEEDS 19 Apr 20:34:01 20:36:45 17° 64° (ENE) 20:39:37 437.485
BRITE-PL 19 Apr 20:35:59 20:39:49 39° 70° (ENE) 20:43:45 437.365/2234.400
STRAND 1 19 Apr 20:39:35 20:44:41 65° 102° (ESE) 20:49:44 437.568
CUTE 1.7 + AOD 2 19 Apr 20:40:22 20:43:44 23° 67° (ENE) 20:47:11 437.475
HO-68 19 Apr 20:41:07 20:47:51 47° 65° (ENE) 20:54:41 435.675
DANDE 19 Apr 20:50:59 20:52:19 12° 302° (WNW) 20:53:38 436.750
GOMX 1 19 Apr 20:58:06 21:02:01 43° 71° (ENE) 21:06:06 467.674
AAUSAT CUBESAT 2 19 Apr 21:06:47 21:10:15 26° 68° (ENE) 21:13:47 437.432
M-CUBED/EXP-1 PRIME 19 Apr 21:08:05 21:11:53 26° 300° (WNW) 21:15:23 437.505
CUBEBUG 2 19 Apr 21:13:51 21:15:58 14° 61° (ENE) 21:18:17 437.445
VERMONT LUNAR 19 Apr 21:19:28 21:22:20 26° 165° (SSE) 21:25:14 437.305
Cosmos 2499 19 Apr 21:21:00 21:29:39 53° 287° (WNW) 21:38:09 435.465 / 435.565
Oscar 11 19 Apr 21:22:50 21:25:57 20° 65° (ENE) 21:29:11 145.826/435.025
DELFI C3 19 Apr 21:27:07 21:29:32 16° 64° (ENE) 21:32:06 145.870
PCSat 19 Apr 21:37:33 21:40:26 14° 255° (WSW) 21:43:02 145.827
YUBILEINY 19 Apr 21:39:06 21:44:20 17° 54° (NE) 21:49:56 435.215
CUBESAT XI-V 19 Apr 21:41:17 21:44:16 17° 297° (WNW) 21:47:07 437.345
DX 1 19 Apr 21:45:59 21:48:07 14° 61° (ENE) 21:50:25 434.975-435.025
SO-50 19 Apr 21:49:20 21:53:43 30° 41° (NE) 21:58:06 436.795
UWE-3 19 Apr 21:52:40 21:56:14 26° 67° (ENE) 21:59:59 435.000/436.395/437.385
COMPASS 1 19 Apr 21:53:02 21:57:17 90° 92° (E) 22:01:34 437.405
PRISM 19 Apr 21:55:08 21:57:36 15° 297° (WNW) 21:59:57 437.425
HUMSAT D 19 Apr 21:58:42 22:00:33 13° 62° (ENE) 22:02:35 437.325/437.525
AUBIESAT-1 19 Apr 21:58:45 22:00:09 11° 309° (NW) 22:01:21 437.475
ISS 19 Apr 22:02:04 22:05:06 36° 219° (SW) 22:08:08 145.825
CINEMA 3 19 Apr 22:03:33 22:07:46 75° 75° (ENE) 22:12:12 145.822/145.860
CANX-2 19 Apr 22:05:09 22:09:15 42° 262° (W) 22:13:22 2200.000
DOVE 4 19 Apr 22:07:07 22:11:11 51° 261° (W) 22:15:26 437.250
SEEDS 19 Apr 22:08:03 22:12:13 51° 261° (W) 22:16:25 437.485
CUTE 1.7 + AOD 2 19 Apr 22:15:30 22:19:29 36° 263° (W) 22:23:29 437.475
BRITE-PL 19 Apr 22:15:40 22:18:38 18° 269° (W) 22:21:32 437.365/2234.400
PHONESAT 2.4 19 Apr 22:18:46 22:21:52 28° 165° (SSE) 22:24:59 2401.200-2431.200
STRAND 1 19 Apr 22:19:52 22:23:26 19° 299° (WNW) 22:26:51 437.568
FUNcube-1 19 Apr 22:19:53 22:23:52 39° 70° (ENE) 22:27:59 145.935
VELOX 1 19 Apr 22:25:47 22:28:28 16° 63° (ENE) 22:31:17 145.980
HO-68 19 Apr 22:29:05 22:35:44 39° 264° (W) 22:42:21 435.675
UKube-1 19 Apr 22:36:29 22:40:29 39° 70° (ENE) 22:44:33 .
GOMX 1 19 Apr 22:37:42 22:40:31 17° 270° (W) 22:43:17 467.674
AISAT 19 Apr 22:40:04 22:43:29 23° 65° (ENE) 22:46:58 437.250
RS-15 19 Apr 22:40:33 22:50:21 33° 20° (NNE) 23:00:38 29.354- 29.394
50 SAT 19 Apr 22:41:19 22:44:18 21° 66° (ENE) 22:47:25 437.505
AAUSAT CUBESAT 2 19 Apr 22:42:00 22:45:47 31° 265° (W) 22:49:34 437.432
ZACube-1 19 Apr 22:42:10 22:46:25 69° 74° (ENE) 22:50:49 437.345
CUBEBUG 2 19 Apr 22:47:51 22:52:07 70° 259° (WSW) 22:56:34 437.445
CUBEBUG 1 19 Apr 22:51:23 22:53:38 14° 62° (ENE) 22:56:02 437.445
ESTCUBE 1 19 Apr 22:55:58 22:59:04 19° 64° (ENE) 23:02:16 437.505/2401.250
VERMONT LUNAR 19 Apr 22:56:20 22:59:30 38° 181° (S) 23:02:40 437.305
Oscar 11 19 Apr 22:57:41 23:01:52 44° 262° (W) 23:06:04 145.826/435.025
DELFI C3 19 Apr 23:00:19 23:04:19 52° 260° (W) 23:08:21 145.870
DX 1 19 Apr 23:19:34 23:23:53 69° 258° (WSW) 23:28:13 434.975-435.025
Cosmos 2499 19 Apr 23:21:53 23:25:23 12° 312° (NW) 23:28:17 435.465 / 435.565
Cosmos 2491 19 Apr 23:24:40 23:31:50 31° 84° (E) 23:39:17 435.465 / 435.565
TIGRISAT 19 Apr 23:28:35 23:32:11 22° 91° (E) 23:35:53 435.000
UWE-3 19 Apr 23:28:50 23:32:42 32° 265° (W) 23:36:38 435.000/436.395/437.385
SO-50 19 Apr 23:29:41 23:34:29 48° 241° (WSW) 23:39:11 436.795
UNISAT 6 19 Apr 23:29:42 23:33:25 23° 92° (E) 23:37:13 437.425
HUMSAT D 19 Apr 23:31:36 23:35:47 71° 258° (WSW) 23:40:03 437.325/437.525
YUBILEINY 19 Apr 23:34:18 23:43:07 74° 79° (ENE) 23:51:50 435.215
POLYITAN 1 19 Apr 23:42:12 23:44:28 14° 89° (E) 23:46:54 437.675
CINEMA 3 19 Apr 23:44:30 23:45:43 11° 275° (W) 23:46:41 145.822/145.860
O/OREOS (USA 219) 19 Apr 23:44:59 23:48:06 19° 102° (ESE) 23:51:22 437.305
DUCHIFAT 1 19 Apr 23:51:13 23:53:57 17° 90° (E) 23:56:50 145.980
PHONESAT 2.4 19 Apr 23:56:23 23:59:46 39° 181° (S) 00:03:08 2401.200-2431.200
FUNcube-1 19 Apr 23:57:06 00:00:24 21° 269° (W) 00:03:41 145.935
VELOX 1 20 Apr 00:00:18 00:04:38 58° 259° (W) 00:09:00 145.980
QB50P1 20 Apr 00:03:48 00:07:14 23° 93° (E) 00:10:44 145.935-145.965
ANTELSAT 20 Apr 00:10:51 00:15:32 58° 100° (E) 00:20:11 437.575/2403.000
UKube-1 20 Apr 00:13:30 00:16:49 21° 267° (W) 00:20:04 .
50 SAT 20 Apr 00:15:18 00:18:58 34° 263° (W) 00:22:40 437.505
BUGSAT 1 20 Apr 00:15:32 00:18:39 21° 93° (E) 00:21:52 437.445
AISAT 20 Apr 00:15:46 00:19:53 38° 263° (W) 00:24:01 437.250
ZACube-1 20 Apr 00:21:34 00:23:24 12° 274° (W) 00:25:02 437.345
CUBEBUG 1 20 Apr 00:25:13 00:29:32 66° 258° (WSW) 00:33:52 437.445
QB50P2 20 Apr 00:27:00 00:31:05 41° 98° (E) 00:35:10 145.880/145.840
TISAT 1 20 Apr 00:31:02 00:34:45 32° 69° (ENE) 00:38:30 437.305
ESTCUBE 1 20 Apr 00:31:11 00:35:36 51° 260° (W) 00:40:02 437.505/2401.250
VERMONT LUNAR 20 Apr 00:33:51 00:36:38 24° 198° (SSW) 00:39:23 437.305
SPROUT 20 Apr 00:35:52 00:39:55 44° 71° (ENE) 00:44:01 437.525
Cosmos 2504 20 Apr 00:37:38 00:43:24 21° 57° (ENE) 00:49:12 435.465 / 435.565
NANOSAT C BR1 20 Apr 00:49:45 00:54:02 72° 102° (ESE) 00:58:18 145.865
POPSAT HIP 1 20 Apr 00:49:52 00:54:09 72° 102° (ESE) 00:58:26 437.405
RS-15 20 Apr 00:53:43 01:05:12 72° 49° (NE) 01:17:12 29.354- 29.394
TIGRISAT 20 Apr 01:04:40 01:09:10 44° 289° (WNW) 01:13:37 435.000
UNISAT 6 20 Apr 01:05:55 01:10:24 42° 290° (WNW) 01:14:49 437.425
BEESAT 20 Apr 01:15:57 01:19:19 20° 63° (ENE) 01:22:48 436.000
POLYITAN 1 20 Apr 01:16:34 01:20:49 58° 287° (WNW) 01:25:02 437.675
SWISSCUBE 20 Apr 01:17:05 01:20:39 22° 64° (ENE) 01:24:20 437.505
Cosmos 2491 20 Apr 01:19:36 01:28:13 62° 284° (WNW) 01:36:55 435.465 / 435.565
O/OREOS (USA 219) 20 Apr 01:22:44 01:27:12 50° 299° (WNW) 01:31:41 437.305
DUCHIFAT 1 20 Apr 01:25:58 01:30:05 48° 288° (WNW) 01:34:12 145.980
YUBILEINY 20 Apr 01:32:17 01:39:11 26° 279° (W) 01:45:45 435.215
PHONESAT 2.4 20 Apr 01:34:38 01:37:37 25° 198° (SSW) 01:40:35 2401.200-2431.200
QB50P1 20 Apr 01:39:18 01:43:12 34° 291° (WNW) 01:47:04 145.935-145.965
AIST 1 20 Apr 01:48:11 01:51:42 25° 90° (E) 01:55:17
ANTELSAT 20 Apr 01:48:37 01:51:55 19° 297° (WNW) 01:55:05 437.575/2403.000
BUGSAT 1 20 Apr 01:50:29 01:54:15 35° 290° (WNW) 01:58:01 437.445
QB50P2 20 Apr 02:03:31 02:06:44 21° 295° (WNW) 02:09:53 145.880/145.840
TISAT 1 20 Apr 02:07:08 02:10:36 24° 266° (W) 02:14:00 437.305
SPROUT 20 Apr 02:13:15 02:16:16 18° 269° (W) 02:19:11 437.525
ITUPSAT 1 20 Apr 02:16:53 02:21:39 69° 73° (ENE) 02:26:26 437.325
Oscar 19 20 Apr 02:18:10 02:22:10 23° 91° (E) 02:26:17 437.125/150
NANOSAT C BR1 20 Apr 02:27:19 02:29:23 13° 298° (WNW) 02:31:16 145.865
POPSAT HIP 1 20 Apr 02:27:28 02:29:32 13° 298° (WNW) 02:31:26 437.405
Cosmos 2504 20 Apr 02:29:55 02:38:19 90° 93° (E) 02:46:01 435.465 / 435.565
STARS 20 Apr 02:32:20 02:34:24 14° 61° (ENE) 02:36:39 437.465
ITAMSAT 1 20 Apr 02:40:46 02:41:40 11° 85° (E) 02:42:56 435.822/435.867
BEESAT 20 Apr 02:52:07 02:56:49 54° 260° (W) 03:01:32 436.000
SWISSCUBE 20 Apr 02:53:35 02:58:14 49° 261° (W) 03:02:53 437.505
KKS-1 20 Apr 02:56:08 03:00:06 34° 68° (ENE) 03:04:08 437.445
RS-15 20 Apr 03:06:44 03:17:05 38° 251° (WSW) 03:27:31 29.354- 29.394
Cosmos 2491 20 Apr 03:22:55 03:27:28 14° 310° (NW) 03:31:31 435.465 / 435.565
AIST 1 20 Apr 03:25:27 03:29:17 30° 287° (WNW) 03:33:05
GONETS M04 20 Apr 03:56:03 04:03:17 28° 62° (ENE) 04:10:43
Oscar 19 20 Apr 03:56:48 04:01:51 50° 290° (WNW) 04:06:51 437.125/150
ITUPSAT 1 20 Apr 03:57:23 04:00:08 14° 272° (W) 04:02:38 437.325
DANDE 20 Apr 04:00:21 04:02:05 11° 57° (ENE) 04:04:24 436.750
CUSAT 1 20 Apr 04:01:46 04:05:30 16° 59° (ENE) 04:10:00 437.405
STARS 20 Apr 04:05:59 04:10:21 73° 257° (WSW) 04:14:46 437.465
Gurwin Techsat 1B 20 Apr 04:08:52 04:14:09 62° 101° (E) 04:19:25 435.225
JAS-2 20 Apr 04:09:26 04:11:21 12° 78° (ENE) 04:13:37 435.910
MOZHAYETS 4 20 Apr 04:14:07 04:17:00 17° 63° (ENE) 04:20:02
ITAMSAT 1 20 Apr 04:16:54 04:22:07 83° 103° (ESE) 04:27:19 435.822/435.867
Cosmos 2504 20 Apr 04:25:09 04:30:32 19° 283° (WNW) 04:35:20 435.465 / 435.565
KKS-1 20 Apr 04:33:05 04:36:49 26° 266° (W) 04:40:30 437.445
M-CUBED/EXP-1 PRIME 20 Apr 04:51:32 04:52:54 11° 51° (NE) 04:54:29 437.505
HORYU 2 20 Apr 05:04:33 05:08:54 46° 99° (E) 05:13:14 437.375
Cosmos 2499 20 Apr 05:19:12 05:23:17 15° 52° (NE) 05:27:36 435.465 / 435.565
AO-7 20 Apr 05:25:12 05:33:07 47° 99° (E) 05:41:07 29.400- 29.500
AUBIESAT-1 20 Apr 05:37:05 05:40:52 24° 59° (ENE) 05:44:46 437.475
BEESAT 2 20 Apr 05:38:56 05:43:00 66° 122° (ESE) 05:47:09 435.950
DANDE 20 Apr 05:40:09 05:46:35 56° 76° (ENE) 05:54:31 436.750
CUSAT 1 20 Apr 05:42:29 05:49:17 70° 77° (ENE) 05:57:26 437.405
BEESAT 3 20 Apr 05:45:46 05:49:53 89° 301° (WNW) 05:54:03 437.485
MOZHAYETS 4 20 Apr 05:49:12 05:53:48 62° 260° (W) 05:58:27
Gurwin Techsat 1B 20 Apr 05:49:48 05:53:43 21° 298° (WNW) 05:57:30 435.225
JAS-2 20 Apr 05:51:13 05:58:05 74° 102° (ESE) 06:04:05 435.910
GONETS M04 20 Apr 05:52:17 06:01:08 73° 265° (W) 06:09:54
ITAMSAT 1 20 Apr 05:57:59 06:01:02 15° 301° (WNW) 06:03:52 435.822/435.867
AIST 2 20 Apr 06:00:28 06:04:23 37° 118° (ESE) 06:08:23 435.215
STRAND 1 20 Apr 06:20:48 06:23:55 17° 60° (ENE) 06:27:13 437.568
M-CUBED/EXP-1 PRIME 20 Apr 06:22:14 06:26:56 67° 68° (ENE) 06:31:46 437.505
HORYU 2 20 Apr 06:41:53 06:45:17 21° 296° (WNW) 06:48:34 437.375
CUBESAT XI-V 20 Apr 07:07:50 07:12:27 73° 75° (ENE) 07:17:06 437.345
PRISM 20 Apr 07:10:23 07:14:27 53° 73° (ENE) 07:18:33 437.425
Cosmos 2499 20 Apr 07:10:23 07:18:30 69° 78° (ENE) 07:25:57 435.465 / 435.565
AUBIESAT-1 20 Apr 07:10:48 07:15:22 48° 256° (WSW) 07:20:03 437.475
AO-7 20 Apr 07:18:10 07:25:57 45° 299° (WNW) 07:33:39 29.400- 29.500
BEESAT 2 20 Apr 07:18:31 07:21:34 19° 322° (NW) 07:24:35 435.950
DANDE 20 Apr 07:23:48 07:29:46 33° 268° (W) 07:36:38 436.750
BEESAT 3 20 Apr 07:26:00 07:28:33 15° 326° (NW) 07:31:02 437.485
CUSAT 1 20 Apr 07:26:03 07:31:48 27° 271° (W) 07:38:03 437.405
JAS-2 20 Apr 07:37:14 07:42:25 23° 303° (WNW) 07:47:01 435.910
AIST 2 20 Apr 07:39:16 07:43:04 29° 317° (NW) 07:46:51 435.215
GONETS M04 20 Apr 07:51:47 07:56:33 15° 285° (WNW) 08:00:45
STRAND 1 20 Apr 07:57:29 08:02:36 73° 257° (WSW) 08:07:45 437.568
CUTE-I 20 Apr 07:59:09 08:04:26 64° 101° (E) 08:09:43 437.470
M-CUBED/EXP-1 PRIME 20 Apr 07:59:14 08:02:17 16° 267° (W) 08:05:12 437.505
Cubesat XI-IV 20 Apr 08:06:49 08:12:10 75° 103° (ESE) 08:17:29 437.490
BRITE-PL 20 Apr 08:39:07 08:41:10 13° 87° (E) 08:43:34 437.365/2234.400
PRISM 20 Apr 08:47:50 08:50:18 15° 270° (W) 08:52:37 437.425
CUBESAT XI-V 20 Apr 08:48:20 08:50:31 13° 273° (W) 08:52:28 437.345
GOMX 1 20 Apr 08:58:26 09:00:43 13° 87° (E) 09:03:20 467.674
Cosmos 2499 20 Apr 09:04:39 09:10:54 25° 279° (W) 09:16:34 435.465 / 435.565
AO-7 20 Apr 09:13:38 09:16:47 12° 322° (NW) 09:19:33 29.400- 29.500
Cosmos 2491 20 Apr 09:31:54 09:37:17 18° 54° (NE) 09:43:05 435.465 / 435.565
COMPASS 1 20 Apr 09:36:26 09:38:18 13° 87° (E) 09:40:22 437.405
CUTE-I 20 Apr 09:40:13 09:44:06 20° 299° (WNW) 09:47:49 437.470
Cubesat XI-IV 20 Apr 09:48:13 09:51:44 18° 300° (WNW) 09:55:05 437.490
CANX-2 20 Apr 09:48:40 09:52:23 28° 94° (E) 09:56:08 2200.000
SEEDS 20 Apr 09:51:00 09:54:22 23° 92° (E) 09:57:47 437.485
O/OREOS (USA 219) 20 Apr 09:51:29 09:55:53 50° 61° (ENE) 10:00:15 437.305
HO-68 20 Apr 09:53:54 10:00:31 39° 96° (E) 10:07:10 435.675
CINEMA 3 20 Apr 09:56:58 10:00:12 18° 89° (E) 10:03:38 145.822/145.860
CUTE 1.7 + AOD 2 20 Apr 09:58:40 10:02:33 33° 95° (E) 10:06:26 437.475
DOVE 4 20 Apr 10:03:16 10:07:50 37° 96° (E) 10:12:39 437.250
BRITE-PL 20 Apr 10:15:26 10:20:17 82° 284° (WNW) 10:25:31 437.365/2234.400
AAUSAT CUBESAT 2 20 Apr 10:22:47 10:26:39 34° 96° (E) 10:30:30 437.432
TIGRISAT 20 Apr 10:29:29 10:33:02 24° 66° (ENE) 10:36:46 435.000
ZACube-1 20 Apr 10:30:35 10:32:32 13° 87° (E) 10:34:43 437.345
UNISAT 6 20 Apr 10:30:48 10:34:28 26° 66° (ENE) 10:38:17 437.425
GOMX 1 20 Apr 10:34:30 10:39:26 81° 283° (WNW) 10:44:40 467.674
PCSat 20 Apr 10:35:41 10:40:56 54° 116° (ESE) 10:46:15 145.827
CUBEBUG 2 20 Apr 10:37:18 10:41:02 23° 92° (E) 10:44:53 437.445
POLYITAN 1 20 Apr 10:37:44 10:40:05 15° 63° (ENE) 10:42:36 437.675
DELFI C3 20 Apr 10:38:44 10:41:32 18° 91° (E) 10:44:26 145.870
Oscar 11 20 Apr 10:43:12 10:46:57 28° 94° (E) 10:50:44 145.826/435.025
YUBILEINY 20 Apr 10:45:29 10:50:16 17° 76° (ENE) 10:55:34 435.215
DUCHIFAT 1 20 Apr 10:46:05 10:48:47 17° 64° (ENE) 10:51:37 145.980
QB50P1 20 Apr 10:58:48 11:02:07 23° 66° (ENE) 11:05:32 145.935-145.965
DX 1 20 Apr 11:06:55 11:09:45 17° 91° (E) 11:12:45 434.975-435.025
BUGSAT 1 20 Apr 11:08:04 11:10:58 20° 66° (ENE) 11:13:59 437.445
COMPASS 1 20 Apr 11:10:17 11:14:29 61° 287° (WNW) 11:18:38 437.405
ANTELSAT 20 Apr 11:11:41 11:16:06 64° 74° (ENE) 11:20:40 437.575/2403.000
HUMSAT D 20 Apr 11:14:48 11:17:37 17° 90° (E) 11:20:34 437.325/437.525
UWE-3 20 Apr 11:16:00 11:20:30 45° 98° (E) 11:25:01 435.000/436.395/437.385
QB50P2 20 Apr 11:21:54 11:25:50 40° 71° (ENE) 11:29:50 145.880/145.840
CANX-2 20 Apr 11:24:33 11:28:18 29° 292° (WNW) 11:31:58 2200.000
SEEDS 20 Apr 11:26:23 11:30:17 35° 290° (WNW) 11:34:07 437.485
Cosmos 2491 20 Apr 11:27:12 11:36:05 75° 79° (E) 11:44:55 435.465 / 435.565
O/OREOS (USA 219) 20 Apr 11:31:51 11:34:58 18° 258° (WSW) 11:37:55 437.305
CINEMA 3 20 Apr 11:32:58 11:37:47 60° 287° (WNW) 11:42:43 145.822/145.860
CUTE 1.7 + AOD 2 20 Apr 11:34:47 11:38:22 25° 293° (WNW) 11:41:50 437.475
DOVE 4 20 Apr 11:41:14 11:45:31 30° 292° (WNW) 11:49:54 437.250
HO-68 20 Apr 11:41:34 11:48:23 46° 296° (WNW) 11:55:06 435.675
FUNcube-1 20 Apr 11:42:01 11:46:36 65° 101° (E) 11:51:10 145.935
NANOSAT C BR1 20 Apr 11:44:09 11:48:18 69° 74° (ENE) 11:52:31 145.865
POPSAT HIP 1 20 Apr 11:44:30 11:48:40 70° 74° (ENE) 11:52:53 437.405
VELOX 1 20 Apr 11:49:21 11:52:49 23° 93° (E) 11:56:23 145.980
50 SAT 20 Apr 11:50:44 11:54:04 24° 94° (E) 11:57:26 437.505
BRITE-PL 20 Apr 11:56:23 11:58:15 12° 299° (WNW) 11:59:55 437.365/2234.400
UKube-1 20 Apr 11:57:44 12:02:00 54° 100° (E) 12:06:15 .
AAUSAT CUBESAT 2 20 Apr 11:58:45 12:02:07 23° 293° (WNW) 12:05:23 437.432
AISAT 20 Apr 12:04:21 12:08:23 33° 96° (E) 12:12:26 437.250
ZACube-1 20 Apr 12:04:53 12:09:30 74° 285° (WNW) 12:14:05 437.345
TIGRISAT 20 Apr 12:05:27 12:09:37 38° 263° (W) 12:13:53 435.000
UNISAT 6 20 Apr 12:06:59 12:11:07 36° 264° (W) 12:15:21 437.425
POLYITAN 1 20 Apr 12:11:26 12:15:35 59° 259° (W) 12:19:47 437.675
CUBEBUG 1 20 Apr 12:12:51 12:15:59 20° 92° (E) 12:19:13 437.445
DELFI C3 20 Apr 12:13:05 12:16:54 39° 289° (WNW) 12:20:40 145.870
CUBEBUG 2 20 Apr 12:13:25 12:17:55 43° 289° (WNW) 12:22:24 437.445
GOMX 1 20 Apr 12:15:00 12:16:58 12° 300° (WNW) 12:18:43 467.674
Oscar 11 20 Apr 12:19:18 12:23:08 30° 292° (WNW) 12:26:54 145.826/435.025
BEESAT 2 20 Apr 12:19:40 12:21:51 14° 33° (NNE) 12:24:08 435.950
PCSat 20 Apr 12:19:59 12:24:41 29° 316° (NW) 12:29:21 145.827
DUCHIFAT 1 20 Apr 12:20:13 12:24:16 49° 261° (W) 12:28:23 145.980
ESTCUBE 1 20 Apr 12:22:10 12:26:01 28° 94° (E) 12:29:54 437.505/2401.250
BEESAT 3 20 Apr 12:25:50 12:28:33 17° 36° (NE) 12:31:17 437.485
QB50P1 20 Apr 12:34:01 12:37:52 34° 264° (W) 12:41:43 145.935-145.965
YUBILEINY 20 Apr 12:36:59 12:45:48 79° 96° (E) 12:54:40 435.215
DX 1 20 Apr 12:42:07 12:46:20 48° 289° (WNW) 12:50:31 434.975-435.025
BUGSAT 1 20 Apr 12:42:30 12:46:16 37° 263° (W) 12:50:02 437.445
AIST 2 20 Apr 12:43:36 12:44:40 11° 27° (NNE) 12:45:50 435.215
HUMSAT D 20 Apr 12:49:29 12:53:42 49° 288° (WNW) 12:57:53 437.325/437.525
ANTELSAT 20 Apr 12:50:55 12:53:26 14° 273° (W) 12:55:48 437.575/2403.000
UWE-3 20 Apr 12:53:07 12:56:47 23° 294° (WNW) 13:00:22 435.000/436.395/437.385
QB50P2 20 Apr 12:58:51 13:01:57 19° 268° (W) 13:04:59 145.880/145.840
FUNcube-1 20 Apr 13:19:37 13:22:28 16° 297° (WNW) 13:25:10 145.935
Cosmos 2504 20 Apr 13:20:32 13:25:05 16° 76° (ENE) 13:30:11 435.465 / 435.565
NANOSAT C BR1 20 Apr 13:23:11 13:24:43 11° 273° (W) 13:26:02 145.865
POPSAT HIP 1 20 Apr 13:23:38 13:25:08 11° 273° (W) 13:26:23 437.405
Cosmos 2491 20 Apr 13:25:15 13:32:10 26° 279° (W) 13:38:47 435.465 / 435.565
50 SAT 20 Apr 13:25:20 13:28:56 30° 291° (WNW) 13:32:28 437.505
VELOX 1 20 Apr 13:25:25 13:29:32 38° 291° (WNW) 13:33:37 145.980
AIST 1 20 Apr 13:29:49 13:34:06 81° 81° (E) 13:38:22
HO-68 20 Apr 13:32:52 13:34:30 11° 316° (NW) 13:35:45 435.675
UKube-1 20 Apr 13:34:56 13:37:47 17° 297° (WNW) 13:40:29 .
Oscar 19 20 Apr 13:36:45 13:41:30 40° 68° (ENE) 13:46:20 437.125/150
AISAT 20 Apr 13:41:08 13:44:53 27° 293° (WNW) 13:48:35 437.250
SO-50 20 Apr 13:45:57 13:50:10 36° 117° (ESE) 13:54:35 436.795
CUBEBUG 1 20 Apr 13:48:28 13:52:35 42° 289° (WNW) 13:56:41 437.445
TISAT 1 20 Apr 13:48:48 13:52:52 44° 98° (E) 13:56:56 437.305
Gurwin Techsat 1B 20 Apr 13:54:26 13:57:52 18° 60° (ENE) 14:01:29 435.225
SPROUT 20 Apr 13:56:14 14:00:33 68° 101° (E) 14:04:51 437.525
BEESAT 2 20 Apr 13:56:34 14:00:44 77° 55° (NE) 14:04:48 435.950
ESTCUBE 1 20 Apr 13:58:55 14:02:55 32° 292° (WNW) 14:06:51 437.505/2401.250
ITAMSAT 1 20 Apr 13:59:08 14:03:02 23° 63° (ENE) 14:07:03 435.822/435.867
BEESAT 3 20 Apr 14:02:59 14:07:06 78° 237° (WSW) 14:11:09 437.485
ITUPSAT 1 20 Apr 14:16:56 14:19:36 15° 88° (E) 14:22:28 437.325
AIST 2 20 Apr 14:20:12 14:24:21 47° 49° (NE) 14:28:25 435.215
JAS-2 20 Apr 14:24:59 14:27:03 11° 47° (NE) 14:29:31 435.910
YUBILEINY 20 Apr 14:36:37 14:43:48 26° 299° (WNW) 14:50:43 435.215
AO-7 20 Apr 14:37:22 14:42:44 20° 47° (NE) 14:48:24 29.400- 29.500
ISS 20 Apr 14:42:11 14:44:44 21° 137° (SE) 14:47:20 145.825
BEESAT 20 Apr 14:50:31 14:54:47 32° 95° (E) 14:59:05 436.000
SWISSCUBE 20 Apr 14:51:56 14:56:19 36° 97° (E) 15:00:43 437.505
Cosmos 2504 20 Apr 15:08:23 15:17:10 74° 95° (E) 15:26:00 435.465 / 435.565
Oscar 19 20 Apr 15:16:33 15:20:59 28° 266° (W) 15:25:23 437.125/150
RS-15 20 Apr 15:21:28 15:30:33 34° 107° (ESE) 15:40:04 29.354- 29.394
TISAT 1 20 Apr 15:25:19 15:28:24 19° 295° (WNW) 15:31:22 437.305
SO-50 20 Apr 15:26:22 15:30:44 36° 316° (NW) 15:35:13 436.795
Gurwin Techsat 1B 20 Apr 15:32:03 15:37:21 72° 257° (WSW) 15:42:41 435.225
SPROUT 20 Apr 15:33:52 15:36:10 14° 298° (WNW) 15:38:19 437.525
BEESAT 2 20 Apr 15:36:44 15:38:18 12° 250° (WSW) 15:39:40 435.950
ITAMSAT 1 20 Apr 15:37:08 15:42:13 54° 260° (W) 15:47:19 435.822/435.867
ITUPSAT 1 20 Apr 15:53:18 15:58:03 65° 287° (WNW) 16:02:45 437.325
STARS 20 Apr 15:54:41 15:57:41 18° 91° (E) 16:00:50 437.465
AIST 2 20 Apr 15:59:28 16:02:40 20° 247° (WSW) 16:05:43 435.215
JAS-2 20 Apr 16:03:08 16:10:28 46° 67° (ENE) 16:17:46 435.910
HORYU 2 20 Apr 16:04:37 16:08:59 54° 72° (ENE) 16:13:25 437.375
ISS 20 Apr 16:17:38 16:20:52 61° 334° (NNW) 16:24:08 145.825
KKS-1 20 Apr 16:21:14 16:25:37 52° 100° (E) 16:30:01 437.445
AO-7 20 Apr 16:26:06 16:34:20 74° 68° (ENE) 16:42:37 29.400- 29.500
BEESAT 20 Apr 16:28:25 16:32:36 30° 293° (WNW) 16:36:43 436.000
SWISSCUBE 20 Apr 16:30:02 16:34:05 28° 294° (WNW) 16:38:03 437.505
GONETS M04 20 Apr 17:00:48 17:07:43 28° 82° (E) 17:14:56
Cosmos 2504 20 Apr 17:03:58 17:11:31 29° 297° (WNW) 17:18:48 435.465 / 435.565
SO-50 20 Apr 17:11:22 17:12:46 11° 339° (NNW) 17:14:03 436.795
STARS 20 Apr 17:30:10 17:34:27 48° 289° (WNW) 17:38:44 437.465
RS-15 20 Apr 17:31:11 17:42:05 74° 310° (NW) 17:53:20 29.354- 29.394
PCSat 20 Apr 17:39:09 17:42:24 16° 33° (NNE) 17:45:47 145.827
MOZHAYETS 4 20 Apr 17:42:46 17:46:40 27° 93° (E) 17:50:36
HORYU 2 20 Apr 17:43:07 17:46:02 16° 270° (W) 17:48:48 437.375
CUTE-I 20 Apr 17:45:15 17:48:52 20° 61° (ENE) 17:52:39 437.470
JAS-2 20 Apr 17:48:05 17:55:31 44° 265° (W) 18:02:51 435.910
Cubesat XI-IV 20 Apr 17:52:39 17:56:38 23° 62° (ENE) 18:00:46 437.490
ISS 20 Apr 17:54:51 17:57:40 26° 354° (N) 18:00:29 145.825
KKS-1 20 Apr 17:58:47 18:01:56 19° 297° (WNW) 18:04:58 437.445
Cosmos 2499 20 Apr 18:03:14 18:04:27 11° 72° (ENE) 18:06:23 435.465 / 435.565
AO-7 20 Apr 18:21:11 18:27:59 26° 269° (W) 18:34:33 29.400- 29.500
AUBIESAT-1 20 Apr 18:53:06 18:54:06 11° 90° (E) 18:55:19 437.475
CUSAT 1 20 Apr 18:55:10 18:58:18 52° 95° (E) 19:02:23 437.405
GONETS M04 20 Apr 18:55:12 19:03:55 69° 283° (WNW) 19:12:44
DANDE 20 Apr 18:57:29 19:00:16 35° 92° (E) 19:03:47 436.750
CUBESAT XI-V 20 Apr 19:03:49 19:06:32 16° 89° (E) 19:09:25 437.345
MOZHAYETS 4 20 Apr 19:19:47 19:23:58 34° 291° (WNW) 19:28:03
PCSat 20 Apr 19:21:30 19:26:56 67° 55° (NE) 19:32:20 145.827
CUTE-I 20 Apr 19:23:12 19:28:30 67° 258° (WSW) 19:33:50 437.470
Cubesat XI-IV 20 Apr 19:31:09 19:36:24 57° 260° (W) 19:41:40 437.490
ISS 20 Apr 19:31:40 19:34:39 31° 14° (NNE) 19:37:37 145.825
M-CUBED/EXP-1 PRIME 20 Apr 19:37:36 19:41:45 37° 101° (ESE) 19:45:36 437.505
RS-15 20 Apr 19:47:06 19:56:46 33° 340° (NNW) 20:06:39 29.354- 29.394
Cosmos 2499 20 Apr 19:47:25 19:55:57 56° 91° (E) 20:04:25 435.465 / 435.565
BRITE-PL 20 Apr 19:52:55 19:55:12 15° 63° (ENE) 19:57:39 437.365/2234.400
STRAND 1 20 Apr 20:06:17 20:10:49 32° 95° (E) 20:15:23 437.568
GOMX 1 20 Apr 20:09:36 20:11:51 15° 62° (ENE) 20:14:19 467.674
